This is the latest recevied weather packets stored in our database for station/object XE2OR-10. If no packets are shown the sender has not sent any weather packets the latest 10 day(s).
| Time | Temp. | Humidity | Pressure | Rain* | Wind** | Luminosity | Snow |
|---|---|---|---|---|---|---|---|
| 1777687429 | 19.44° C | 83% | 1018.8 hPa | 0 mm | - | 0 W/m² | - |
| 1777687129 | 19.44° C | 83% | 1018.7 hPa | 0 mm | - | 0 W/m² | - |
| 1777686833 | 19.44° C | 83% | 1018.6 hPa | 0 mm | - | 0 W/m² | - |
| 1777686530 | 19.44° C | 83% | 1018.3 hPa | 0 mm | - | 0 W/m² | - |
| 1777686232 | 20° C | 82% | 1018.4 hPa | 0 mm | - | 0 W/m² | - |
| 1777685929 | 20° C | 83% | 1018.4 hPa | 0 mm | - | 0 W/m² | - |
| 1777685629 | 20° C | 83% | 1018.2 hPa | 0 mm | - | 0 W/m² | - |
| 1777685329 | 20° C | 82% | 1018.1 hPa | 0 mm | - | 0 W/m² | - |
| 1777685032 | 20.56° C | 82% | 1018 hPa | 0 mm | - | 1 W/m² | - |
| 1777684729 | 20.56° C | 82% | 1017.7 hPa | 0 mm | - | 2 W/m² | - |
| 1777684433 | 20.56° C | 81% | 1017.8 hPa | 0 mm | - | 4 W/m² | - |
| 1777684129 | 20.56° C | 82% | 1017.6 hPa | 0 mm | - | 6 W/m² | - |
| 1777683829 | 21.11° C | 82% | 1017.2 hPa | 0 mm | - | 8 W/m² | - |
| 1777683529 | 21.11° C | 82% | 1017.4 hPa | 0 mm | - | 12 W/m² | - |
| 1777683232 | 21.11° C | 82% | 1017.3 hPa | 0 mm | - | 17 W/m² | - |
| 1777682929 | 21.11° C | 82% | 1017.4 hPa | 0 mm | - | 18 W/m² | - |
| 1777682632 | 21.11° C | 81% | 1017.3 hPa | 0 mm | - | 23 W/m² | - |
| 1777682329 | 21.11° C | 82% | 1017.2 hPa | 0 mm | - | 27 W/m² | - |
| 1777682029 | 21.11° C | 81% | 1017.1 hPa | 0 mm | - | 39 W/m² | - |
| 1777681729 | 21.11° C | 81% | 1017 hPa | 0 mm | - | 33 W/m² | - |
| 1777681433 | 21.11° C | 81% | 1016.7 hPa | 0 mm | - | 32 W/m² | - |
| 1777681129 | 21.11° C | 81% | 1016.7 hPa | 0 mm | - | 33 W/m² | - |
| 1777680833 | 21.11° C | 81% | 1016.8 hPa | 0 mm | - | 35 W/m² | - |
| 1777680529 | 21.11° C | 81% | 1016.7 hPa | 0 mm | - | 38 W/m² | - |
| 1777680229 | 21.67° C | 81% | 1016.6 hPa | 0 mm | - | 83 W/m² | - |
* Rain latest hour (hover to see other rain measurements)
** Current wind speed in m/s (hover to see current wind gust speed)